TimeMST,TemperatureF,Dew PointF,Humidity,Sea Level PressureIn,VisibilityMPH,Wind Direction,Wind SpeedMPH,Gust SpeedMPH,PrecipitationIn,Events,Conditions,WindDirDegrees,DateUTC
12:53 AM,-9999,-9999,N/A,30.30,-9999.0,North,-9999.0,-,N/A,,Unknown,0,2012-11-07 07:53:00
1:53 AM,-9999,-9999,N/A,30.30,-9999.0,North,-9999.0,-,N/A,,Unknown,0,2012-11-07 08:53:00
2:53 AM,-9999,-9999,N/A,30.29,-9999.0,North,-9999.0,-,N/A,,Unknown,0,2012-11-07 09:53:00
3:53 AM,-9999,-9999,N/A,30.28,-9999.0,North,-9999.0,-,N/A,,Unknown,0,2012-11-07 10:53:00
4:53 AM,-9999,-9999,N/A,30.29,-9999.0,North,-9999.0,-,N/A,,Unknown,0,2012-11-07 11:53:00
5:53 AM,-9999,-9999,N/A,30.29,-9999.0,North,-9999.0,-,N/A,,Unknown,0,2012-11-07 12:53:00
6:53 AM,-9999,-9999,N/A,30.29,-9999.0,North,-9999.0,-,N/A,,Unknown,0,2012-11-07 13:53:00
7:53 AM,-9999,-9999,N/A,30.29,-9999.0,North,-9999.0,-,N/A,,Unknown,0,2012-11-07 14:53:00
8:53 AM,-9999,-9999,N/A,30.29,-9999.0,North,-9999.0,-,N/A,,Unknown,0,2012-11-07 15:53:00
9:53 AM,54.0,18.0,24,30.28,10.0,North,11.5,-,N/A,,Unknown,360,2012-11-07 16:53:00
10:53 AM,60.1,18.0,20,30.26,10.0,North,6.9,-,N/A,,Clear,360,2012-11-07 17:53:00
11:53 AM,64.9,16.0,15,30.22,10.0,WSW,10.4,-,N/A,,Clear,250,2012-11-07 18:53:00
12:53 PM,66.0,17.1,15,30.18,10.0,SW,10.4,-,N/A,,Clear,230,2012-11-07 19:53:00
1:53 PM,66.9,17.1,15,30.16,10.0,West,5.8,-,N/A,,Clear,280,2012-11-07 20:53:00
2:53 PM,68.0,16.0,14,30.14,10.0,SW,10.4,-,N/A,,Clear,220,2012-11-07 21:53:00
3:53 PM,68.0,15.1,13,30.13,10.0,WSW,13.8,21.9,N/A,,Clear,240,2012-11-07 22:53:00
4:53 PM,63.0,15.1,16,30.12,10.0,SW,8.1,-,N/A,,Clear,220,2012-11-07 23:53:00
5:53 PM,55.0,14.0,20,30.13,10.0,Calm,Calm,-,N/A,,Clear,0,2012-11-08 00:53:00
6:53 PM,54.0,15.1,22,30.14,10.0,WNW,4.6,-,N/A,,Clear,300,2012-11-08 01:53:00
7:53 PM,50.0,14.0,24,30.15,10.0,North,4.6,-,N/A,,Clear,350,2012-11-08 02:53:00
8:53 PM,48.0,15.1,27,30.15,10.0,NNW,5.8,-,N/A,,Clear,340,2012-11-08 03:53:00
9:53 PM,48.9,16.0,27,29.98,10.0,North,4.6,-,N/A,,Clear,360,2012-11-08 04:53:00
10:53 PM,46.0,15.1,29,29.96,10.0,Calm,Calm,-,N/A,,Clear,0,2012-11-08 05:53:00
11:53 PM,35.1,14.0,42,29.98,10.0,Calm,Calm,-,N/A,,Clear,0,2012-11-08 06:53:00